Weather in Zhengzhou

China     34°46′18″N   113°39′02″E
temp.,
°C
wind,
m/s
gust,
m/s
humid.,
%
clouds,
%
prec.,
mm/h
press.,
hPa
HPBL,
m
12 april, mon
mon1223:00+14wsw1173100 0.0 102047
02:00+13w127598 0.0 1018100
05:00+13w236998 0.0 1017145
08:00+15w2448100 0.0 1017316
11:00+21wsw33365 0.0 10171111
14:00+25wnw35300 0.0 10141800
17:00+25wsw34301 0.0 10121930
20:00+20sse38475 0.0 1014193
13 april, tue
tue1323:00+18ssw3756100 0.0 1015162
02:00+17nne61354100 0.0 1017734
05:00+16ne71358100 0.0 1019983
08:00+14nne7122781 0.0 1023900
11:00+18ne6824100 0.0 10231272
14:00+20ne4424100 0.0 10211601
17:00+20ne222796 0.0 10201576
20:00+17e2336100 0.0 1021111
14 april, wed
wed1423:00+15sse234397 0.0 102397
02:00+13s1150100 0.0 102228
05:00+11se026564 0.0 102285
08:00+14nw1253100 0.0 1023341
11:00+19wsw0036100 0.0 10221102
14:00+22ssw1218100 0.0 10181857
17:00+22s441899 0.0 10162039
20:00+17s4941100 0.0 1016454
15 april, thu
thu1523:00+16s51264100 0.0 1016474
02:00+13s5128281 0.0 1015380
05:00+12s498617 0.0 1014248
08:00+15wsw2465100 0.0 1014276
11:00+22wnw5834100 0.0 1013929
14:00+28wnw6101110 0.0 10113201
17:00+28wnw68838 0.0 10112914
20:00+22nnw5111342 0.0 1015515
16 april, fri
fri1623:00+18nne27150 0.0 1018330
02:00+14nne23184 0.0 1018128
05:00+12ese112171 0.0 101748
08:00+15sse12200 0.0 1018218
11:00+22ssw34155 0.0 10171123
14:00+26ssw5616100 0.0 10141856
17:00+27sw461796 0.0 10121853
20:00+22ssw4835100 0.0 1014243